This is the latest recevied weather packets stored in our database for station/object KY4LEX. If no packets are shown the sender has not sent any weather packets the latest 10 day(s).
| Time | Temp. | Humidity | Pressure | Rain* | Wind** | Luminosity | Snow |
|---|---|---|---|---|---|---|---|
| 1777436463 | 16.11° C | 96% | 1018.6 hPa | 0 mm | - | 0 W/m² | - |
| 1777436160 | 16.11° C | 96% | 1018.7 hPa | 0 mm | - | 0 W/m² | - |
| 1777435856 | 16.11° C | 96% | 1018.6 hPa | 1.78 mm | - | 0 W/m² | - |
| 1777435552 | 16.67° C | 96% | 1018.9 hPa | 1.78 mm | - | 0 W/m² | - |
| 1777435248 | 16.67° C | 95% | 1019 hPa | 1.27 mm | - | 0 W/m² | - |
| 1777434947 | 16.67° C | 95% | 1019.1 hPa | 1.78 mm | - | 0 W/m² | - |
| 1777434643 | 16.67° C | 95% | 1019.1 hPa | 1.78 mm | - | 0 W/m² | - |
| 1777434338 | 16.67° C | 95% | 1019.3 hPa | 3.05 mm | - | 0 W/m² | - |
| 1777434037 | 16.67° C | 95% | 1019.3 hPa | 3.05 mm | - | 0 W/m² | - |
| 1777433732 | 16.67° C | 95% | 1019.3 hPa | 41.4 mm | - | 0 W/m² | - |
| 1777433429 | 17.78° C | 93% | 1019.7 hPa | 23.37 mm | - | 0 W/m² | - |
| 1777433124 | 19.44° C | 91% | 1019.7 hPa | 0 mm | - | 0 W/m² | - |
| 1777432821 | 19.44° C | 91% | 1018.7 hPa | 0 mm | - | 0 W/m² | - |
| 1777432516 | 19.44° C | 90% | 1018.6 hPa | 0 mm | - | 0 W/m² | - |
| 1777432212 | 19.44° C | 90% | 1018.8 hPa | 0 mm | - | 0 W/m² | - |
| 1777431911 | 19.44° C | 90% | 1018.8 hPa | 0 mm | - | 0 W/m² | - |
| 1777431609 | 19.44° C | 90% | 1018.6 hPa | 0 mm | - | 0 W/m² | - |
| 1777431304 | 19.44° C | 90% | 1019.1 hPa | 0 mm | - | 0 W/m² | - |
| 1777431000 | 19.44° C | 89% | 1018.8 hPa | 0 mm | - | 0 W/m² | - |
| 1777430696 | 19.44° C | 89% | 1018.9 hPa | 0 mm | - | 0 W/m² | - |
| 1777430391 | 20° C | 89% | 1019 hPa | 0 mm | - | 0 W/m² | - |
| 1777430087 | 20° C | 88% | 1019 hPa | 0 mm | - | 0 W/m² | - |
| 1777429783 | 20° C | 87% | 1019.4 hPa | 0 mm | - | 0 W/m² | - |
| 1777429479 | 20° C | 87% | 1019.3 hPa | 0 mm | - | 0 W/m² | - |
| 1777429175 | 20° C | 86% | 1019.2 hPa | 0 mm | - | 0 W/m² | - |
* Rain latest hour (hover to see other rain measurements)
** Current wind speed in m/s (hover to see current wind gust speed)